[keps] orb08234.amsat

Ray Hoad r.hoad at att.net
Thu Aug 21 19:12:24 PDT 2008


SB KEPS @ AMSAT  $ORB08234.O
Orbital Elements  08234.OSCAR

HR AMSAT ORBITAL ELEMENTS FOR OSCAR SATELLITES
FROM WA5QGD FORT WORTH,TX August 21, 2008
Send Subscribe/unsubscribe to KEPS at 
http://www.amsat.org/mailman/listinfo/keps
BID: ORB08234.O
TO ALL RADIO AMATEURS BT

Satellite: AO-07
Catalog number: 07530
Epoch time:      08234.65511774
Element set:     257
Inclination:      101.4627 deg
RA of node:       263.9532 deg
Eccentricity:    0.0012198
Arg of perigee:   133.6975 deg
Mean anomaly:     226.5112 deg
Mean motion:   12.53573964 rev/day
Decay rate:       -2.7e-07 rev/day^2
Epoch rev:           54518
Checksum:              303

Satellite: AO-10
Catalog number: 14129
Epoch time:      08234.27716627
Element set:     547
Inclination:      026.0261 deg
RA of node:       199.5308 deg
Eccentricity:    0.5969425
Arg of perigee:   150.3823 deg
Mean anomaly:     263.7562 deg
Mean motion:   02.05868850 rev/day
Decay rate:       -7.8e-07 rev/day^2
Epoch rev:           18944
Checksum:              329

Satellite: UO-11
Catalog number: 14781
Epoch time:      08233.63153778
Element set:    0750
Inclination:      098.1497 deg
RA of node:       268.6146 deg
Eccentricity:    0.0008335
Arg of perigee:   221.4145 deg
Mean anomaly:     138.6416 deg
Mean motion:   14.79659540 rev/day
Decay rate:        5.3e-07 rev/day^2
Epoch rev:           31338
Checksum:              316

Satellite: RS-15
Catalog number: 23439
Epoch time:      08234.82301456
Element set:     139
Inclination:      064.8159 deg
RA of node:       028.9067 deg
Eccentricity:    0.0146991
Arg of perigee:   110.3694 deg
Mean anomaly:     251.3098 deg
Mean motion:   11.27553007 rev/day
Decay rate:       -3.9e-07 rev/day^2
Epoch rev:           56236
Checksum:              310

Satellite: FO-29
Catalog number: 24278
Epoch time:      08233.90487316
Element set:    0859
Inclination:      098.5823 deg
RA of node:       141.7132 deg
Eccentricity:    0.0351263
Arg of perigee:   048.1301 deg
Mean anomaly:     314.9252 deg
Mean motion:   13.52939302 rev/day
Decay rate:       -2.4e-07 rev/day^2
Epoch rev:           59314
Checksum:              304

Satellite: SO-33
Catalog number: 25509
Epoch time:      08234.54454856
Element set:     268
Inclination:      031.4358 deg
RA of node:       306.8088 deg
Eccentricity:    0.0355275
Arg of perigee:   238.6689 deg
Mean anomaly:     117.8712 deg
Mean motion:   14.28222079 rev/day
Decay rate:        6.8e-07 rev/day^2
Epoch rev:           51296
Checksum:              339

Satellite: AO-40
Catalog number: 26609
Epoch time:      08231.70263693
Element set:     104
Inclination:      007.6890 deg
RA of node:       065.8690 deg
Eccentricity:    0.7929895
Arg of perigee:   113.4517 deg
Mean anomaly:     342.4811 deg
Mean motion:   01.25585855 rev/day
Decay rate:      -3.17e-06 rev/day^2
Epoch rev:            3582
Checksum:              324

Satellite: VO-52
Catalog number: 28650
Epoch time:      08234.85367545
Element set:      11
Inclination:      097.7852 deg
RA of node:       299.6460 deg
Eccentricity:    0.0026030
Arg of perigee:   287.4171 deg
Mean anomaly:     072.4171 deg
Mean motion:   14.81490629 rev/day
Decay rate:      -1.46e-06 rev/day^2
Epoch rev:           17832
Checksum:              314

Satellite: PO-63
Catalog number: 29712
Epoch time:      08234.72750280
Element set:     728
Inclination:      097.8715 deg
RA of node:       291.6703 deg
Eccentricity:    0.0014443
Arg of perigee:   163.9867 deg
Mean anomaly:     196.1807 deg
Mean motion:   14.80243394 rev/day
Decay rate:       4.03e-06 rev/day^2
Epoch rev:            8716
Checksum:              325

/EX
SB KEPS @ AMSAT  $ORB08234.D
Orbital Elements  08234.MICROS

HR AMSAT ORBITAL ELEMENTS FOR THE MICROSATS
FROM WA5QGD FORT WORTH,TX August 21, 2008
Send Subscribe/unsubscribe to KEPS at 
http://www.amsat.org/mailman/listinfo/keps
BID: ORB08234.D
TO ALL RADIO AMATEURS BT

Satellite: AO-16
Catalog number: 20439
Epoch time:      08234.90021657
Element set:     399
Inclination:      098.2361 deg
RA of node:       211.6226 deg
Eccentricity:    0.0010974
Arg of perigee:   346.8693 deg
Mean anomaly:     013.2206 deg
Mean motion:   14.31800527 rev/day
Decay rate:       -2.7e-07 rev/day^2
Epoch rev:           97032
Checksum:              289

Satellite: LO-19
Catalog number: 20442
Epoch time:      08233.95844268
Element set:     322
Inclination:      098.2060 deg
RA of node:       219.0677 deg
Eccentricity:    0.0011745
Arg of perigee:   347.3109 deg
Mean anomaly:     012.7856 deg
Mean motion:   14.32039106 rev/day
Decay rate:        5.3e-07 rev/day^2
Epoch rev:           97034
Checksum:              293

Satellite: AO-27
Catalog number: 22825
Epoch time:      08233.67742257
Element set:    0046
Inclination:      098.3897 deg
RA of node:       191.2979 deg
Eccentricity:    0.0009337
Arg of perigee:   073.1785 deg
Mean anomaly:     287.0418 deg
Mean motion:   14.29245575 rev/day
Decay rate:       1.03e-06 rev/day^2
Epoch rev:           77698
Checksum:              354

Satellite: IO-26
Catalog number: 22826
Epoch time:      08233.93023065
Element set:    0754
Inclination:      098.3822 deg
RA of node:       192.4222 deg
Eccentricity:    0.0009938
Arg of perigee:   067.7963 deg
Mean anomaly:     292.4267 deg
Mean motion:   14.29494213 rev/day
Decay rate:       -2.6e-07 rev/day^2
Epoch rev:           77711
Checksum:              323

Satellite: PO-28
Catalog number: 22829
Epoch time:      08234.86449400
Element set:      17
Inclination:      098.3719 deg
RA of node:       194.4142 deg
Eccentricity:    0.0010439
Arg of perigee:   039.0835 deg
Mean anomaly:     321.1111 deg
Mean motion:   14.30195005 rev/day
Decay rate:       -5.9e-07 rev/day^2
Epoch rev:           77751
Checksum:              291

Satellite: GO-32
Catalog number: 25397
Epoch time:      08234.63666942
Element set:     677
Inclination:      098.3596 deg
RA of node:       266.5540 deg
Eccentricity:    0.0002062
Arg of perigee:   071.4346 deg
Mean anomaly:     288.7057 deg
Mean motion:   14.23147384 rev/day
Decay rate:        1.9e-07 rev/day^2
Epoch rev:           52552
Checksum:              327

Satellite: NO-44
Catalog number: 26931
Epoch time:      08233.79250402
Element set:    0959
Inclination:      067.0529 deg
RA of node:       118.2263 deg
Eccentricity:    0.0007328
Arg of perigee:   264.8479 deg
Mean anomaly:     095.1805 deg
Mean motion:   14.29530307 rev/day
Decay rate:      -1.32e-06 rev/day^2
Epoch rev:           35964
Checksum:              315

Satellite: SO-50
Catalog number: 27607
Epoch time:      08234.45915285
Element set:     679
Inclination:      064.5560 deg
RA of node:       215.4034 deg
Eccentricity:    0.0086592
Arg of perigee:   267.0035 deg
Mean anomaly:     092.1181 deg
Mean motion:   14.71374646 rev/day
Decay rate:       -6.9e-07 rev/day^2
Epoch rev:           30457
Checksum:              314

Satellite: CO-55
Catalog number: 27844
Epoch time:      08234.72817382
Element set:     378
Inclination:      098.7167 deg
RA of node:       242.0873 deg
Eccentricity:    0.0009048
Arg of perigee:   291.3512 deg
Mean anomaly:     068.6681 deg
Mean motion:   14.20592630 rev/day
Decay rate:        2.1e-07 rev/day^2
Epoch rev:           26674
Checksum:              322

Satellite: CO-57
Catalog number: 27848
Epoch time:      08234.52376143
Element set:     328
Inclination:      098.7177 deg
RA of node:       240.9706 deg
Eccentricity:    0.0009255
Arg of perigee:   296.1590 deg
Mean anomaly:     063.8635 deg
Mean motion:   14.20401158 rev/day
Decay rate:        2.9e-07 rev/day^2
Epoch rev:           26668
Checksum:              329

Satellite: AO-51
Catalog number: 28375
Epoch time:      08234.82294774
Element set:     179
Inclination:      098.0686 deg
RA of node:       255.6943 deg
Eccentricity:    0.0084026
Arg of perigee:   314.5570 deg
Mean anomaly:     044.8780 deg
Mean motion:   14.40615947 rev/day
Decay rate:       -8.0e-08 rev/day^2
Epoch rev:           21785
Checksum:              340

Satellite: CO-56
Catalog number: 28941
Epoch time:      08234.82535062
Element set:     308
Inclination:      098.1133 deg
RA of node:       354.6665 deg
Eccentricity:    0.0157589
Arg of perigee:   161.8964 deg
Mean anomaly:     198.7939 deg
Mean motion:   15.59696291 rev/day
Decay rate:     3.4367e-04 rev/day^2
Epoch rev:           14026
Checksum:              367

Satellite: CP3
Catalog number: 31128
Epoch time:      08233.83799852
Element set:    0413
Inclination:      098.0343 deg
RA of node:       294.5288 deg
Eccentricity:    0.0104019
Arg of perigee:   134.6209 deg
Mean anomaly:     226.3523 deg
Mean motion:   14.51969453 rev/day
Decay rate:       -4.6e-07 rev/day^2
Epoch rev:           07131
Checksum:              301

Satellite: CP4
Catalog number: 31132
Epoch time:      08234.89824106
Element set:     392
Inclination:      098.0367 deg
RA of node:       298.0178 deg
Eccentricity:    0.0087141
Arg of perigee:   124.1334 deg
Mean anomaly:     236.8163 deg
Mean motion:   14.55136674 rev/day
Decay rate:      -1.12e-06 rev/day^2
Epoch rev:            7150
Checksum:              288

/EX
SB KEPS @ AMSAT  $ORB08234.W
Orbital Elements  08234.WEATHER

HR AMSAT ORBITAL ELEMENTS FOR WEATHER SATELLITES
FROM WA5QGD FORT WORTH,TX August 21, 2008
Send Subscribe/unsubscribe to KEPS at 
http://www.amsat.org/mailman/listinfo/keps
BID: ORB08234.W
TO ALL RADIO AMATEURS BT

Satellite: NOAA-10
Catalog number: 16969
Epoch time:      08233.57557078
Element set:    0256
Inclination:      098.7202 deg
RA of node:       255.4103 deg
Eccentricity:    0.0012207
Arg of perigee:   358.1176 deg
Mean anomaly:     001.9952 deg
Mean motion:   14.27366787 rev/day
Decay rate:        8.5e-07 rev/day^2
Epoch rev:           14062
Checksum:              310

